Regional Weather Roundup
Issued by NWS

Home | Current Version | Previous Version | Graphics & Text | Print | Product List | Glossary Off
Versions: 1 2 3 4 5 6 7 8 9 10 11 12 13 14 15 16 17 18 19 20 21 22 23 24 25 26 27 28 29 30 31 32 33 34 35 36 37 38 39 40 41 42 43 44 45 46 47 48 49 50

000
ASUS43 KTOP 240108
RWRKS

WEATHER ROUNDUP FOR KANSAS
NATIONAL WEATHER SERVICE GOODLAND KS
800 PM CDT WED AUG 23 2017

NOTE:  "FAIR" INDICATES FEW OR NO CLOUDS BELOW 12,000 FEET WITH NO
SIGNIFICANT WEATHER AND/OR OBSTRUCTIONS TO VISIBILITY.

KSZ001>006-013>018-027>032-041>047-240200-
NORTHWEST KANSAS

CITY           SKY/WX    TMP DP  RH WIND       PRES   REMARKS
GOODLAND       CLEAR     79  62  56 S17       30.02F
HAYS           CLEAR     78  50  37 SE12      30.02S
HILL CITY      CLEAR     80  46  30 SE9       30.01S
RUSSELL        CLEAR     79  47  32 SE10      30.01S
$$

KSZ061>065-074>080-084>089-240200-
SOUTHWEST KANSAS

CITY           SKY/WX    TMP DP  RH WIND       PRES   REMARKS
DODGE CITY     CLEAR     80  48  32 S10       30.04S
ELKHART          N/A     73  66  78 S7          N/A
GARDEN CITY    CLEAR     78  60  53 S9        30.03F
GREAT BEND     CLEAR     76  51  41 SE8       30.03S
LIBERAL        PTCLDY    78  65  63 S13       30.05S
PRATT          CLEAR     78  51  38 E3        30.04S
$$

KSZ066>073-081>083-090>101-240200-
SOUTHEAST KANSAS

CITY           SKY/WX    TMP DP  RH WIND       PRES   REMARKS
CHANUTE        CLEAR     73  57  57 E6        30.04F
COFFEYVILLE    CLEAR     72  56  57 NE7       30.02R
HUTCHINSON     CLEAR     74  53  48 E8        30.02F
MEDICINE LODGE   N/A     79  51  37 SE5       30.01S
NEWTON         CLEAR     72  56  57 SE6       30.05S
PARSONS        CLEAR     71  58  63 CALM      30.04F
WICHITA INTL   PTCLDY    77  51  40 E10       30.02S
WICHITA JABRA  CLEAR     72  56  57 E6        30.03S
WICHITA MCCONL CLEAR     77  51  40 E9        30.03S
WINFIELD       CLEAR     75  55  49 E5        30.03S
$$

KSZ007>012-019>026-033>040-048>060-102>105-240200-
NORTHEAST KANSAS

CITY           SKY/WX    TMP DP  RH WIND       PRES   REMARKS
CONCORDIA      CLEAR     72  57  59 SE8       30.02F
EMPORIA        CLEAR     70  58  65 E6        30.04F
LAWRENCE       CLEAR     71  64  78 N3        30.04F
MANHATTAN      CLEAR     73  59  61 E5        30.04R
MARYSVILLE     CLEAR     73  55  53 SE3       30.04S
OLATHE IND     CLEAR     72  57  59 SE5       30.06S
OLATHE EXE     CLEAR     71  57  61 SE7       30.06S
SALINA         CLEAR     81  49  32 SE10      30.02F
TOPEKA BILLARD CLEAR     73  61  65 E5        30.04F
TOPEKA FORBES  CLEAR     73  60  63 E5        30.04F
$$




USA.gov is the U.S. government's official web portal to all federal, state and local government web resources and services.